STARLINK-35808, 68052

Orbit data source: Space-Track

STARLINK-35808, 68052 is a payload satellite owned by SpaceX/Seattle (US) in LEO that was launched on Mon, 02 Mar 2026 UTC via an FALCON 9 launch vehicle from the Air Force Eastern Test Range (AFETR). Payload-class satellites include a variety of spacecraft equipped with specific instruments for various scientific and technological missions. These include communications satellites like Starlink; space stations such as the ISS; scientific satellites like the Hubble; Earth observation satellites from companies like Planet Labs, Umbra, and HawkEye 360; GPS; miniature CubeSats for education and research; and military/defense satellites.

Loading next visibility...
Identifier
68052, 2026-041N
Orbit
LEO
Country
Flag of USUS
Related business
Manufacturer
SpaceX/Seattle
Mission
Operational Commercial Communications
Bus & Motor
STARLINK V2MO, Unknown motor
Mass
575 kg wet, ~530 kg dry
Launch date (UTC)
2026-03-02 (2 months ago)
Launch vehicle
FALCON 9
Launch site
Air Force Eastern Test Range (AFETR)
Object type
Payload
Rocket body
Debris
Shape & HBR
Box + 2 Pan, 17.7 m
Radar Cross Section
36.964 m²

Expand to show TLE details & history
Last TLE update: 13 hours ago

TLE from 13 hours ago
0 STARLINK-35808
1 68052U 26041N   26118.85243670  .00015641  00000-0  53902-3 0  9996
2 68052  53.1581 177.2159 0001084  62.5325 297.5786 15.30204143  9066
Epoch: 2026-04-28T20:27Z
TLE epoch observation values (Epoch: 2026-04-28T20:27:30.530Z)
Latitude
-0.00003°
Longitude
13.51687°
Altitude
475.758 km
Speed
7.629 km/s
True Right ascension
11h 48m 51s
True Declination
0° 00' 00"
Sunlit
Object was in full shadow at epoch
Visualization orbit readout
Latitude
Unknown
Longitude
Unknown
Altitude
Unknown
Speed
Unknown
Apparent Right ascension
Unknown
Apparent Declination
Unknown
Sunlit
N/A
Visualization observer readout
Local Sidereal Time
17:06:15
Azimuth
Unknown
Elevation
Unknown
Doppler factor
Unknown
Orbital elements
Apogee altitude
476.202 km
Perigee altitude
474.717 km
Semi-major axis
6,853.596 km
Eccentricity
0.00011
Inclination
53.1581°
RAAN
177.2159°
Arg. of periapsis
62.5325°
True anomaly
297.56759°
Mean anomaly
297.5786°
Eccentric anomaly
297.57309°
Mean motion
3.8253 °/min
Orbital period
94.11 mins
BSTAR
0.00053902
Loading maneuver chart data...
Computing Atmospheric mass density...
Loading historical data...
Loading historical data...
Loading historical data...
Loading historical data...
Loading historical data...
Loading historical data...
Loading historical data...

Documentation

Showing up to 5 results
|